Regional Weather Roundup
Issued by NWS

Home | Current Version | Previous Version | Text Only | Print | Product List | Glossary Off
Versions: 1 2 3 4 5 6 7 8 9 10 11 12 13 14 15 16 17 18 19 20 21 22 23 24 25 26 27 28 29 30 31 32 33 34 35 36 37 38 39 40 41 42 43 44 45 46 47 48 49 50

000
ASUS44 KMEG 011500
RWRTN
TENNESSEE HOURLY STATE WEATHER ROUNDUP
NATIONAL WEATHER SERVICE MEMPHIS TN
1000 AM CDT SAT AUG 01 2015

TNZ002-004-019-021-049-052-054-088>092-011600-
WEST TENNESSEE

CITY           SKY/WX    TMP DP  RH WIND       PRES   REMARKS
MEMPHIS INTL   SUNNY     89  67  47 NE5       30.04S HX  92
NWS MEMPHIS      N/A     87 N/A N/A MISG        N/A
JACKSON        SUNNY     87  69  54 VRB5      30.04F HX  91
DYERSBURG        N/A    N/A N/A N/A MISG        N/A
PARIS          SUNNY     82  70  65 CALM      30.05S
LEXINGTON      SUNNY     82  70  65 NE3       30.03F
$$

TNZ008-025-027-028-033-062-065-066-011600-
NORTH MIDDLE TENNESSEE

CITY           SKY/WX    TMP DP  RH WIND       PRES   REMARKS
NASHVILLE      SUNNY     84  58  40 N6        30.04F
CLARKSVILLE    SUNNY     83  70  64 VRB6      30.04S
CROSSVILLE     SUNNY     80  63  55 NE9       30.10F
$$

TNZ061-075-076-078-094-096-097-011600-
SOUTH MIDDLE TENNESSEE

CITY           SKY/WX    TMP DP  RH WIND       PRES   REMARKS
FAYETTEVILLE   SUNNY     79  64  61 N9        30.05S
TULLAHOMA      SUNNY     81  64  57 NE5       30.07S
WINCHESTER     SUNNY     81  66  61 NE8       30.05F
MCMINNVILLE    SUNNY     81  70  69 NE6       30.07R
COLUMBIA       SUNNY     84  73  70 N6        30.04S HX  91
SHELBYVILLE    SUNNY     84  70  61 N8        30.06S
$$

TNZ017-018-042-046-047-011600-
NORTHEAST TENNESSEE

CITY           SKY/WX    TMP DP  RH WIND       PRES   REMARKS
TRI CITIES     SUNNY     78  61  55 CALM      30.07S
ELIZABETHTON   SUNNY     75  61  60 W6        30.08R
$$

TNZ012-013-036-069-073-074-011600-
CENTRAL EAST TENNESSEE

CITY           SKY/WX    TMP DP  RH WIND       PRES   REMARKS
KNOXVILLE      MOSUNNY   82  63  52 NE7       30.05R
OAK RIDGE      SUNNY     81  65  58 CALM      30.06S
GATLINBURG     SUNNY     82  59  44 CALM      30.05S
$$

TNZ083-085-099-011600-
SOUTHEAST TENNESSEE

CITY           SKY/WX    TMP DP  RH WIND       PRES   REMARKS
CHATTANOOGA    MOSUNNY   83  64  52 N13       30.03S
$$

SKY/WX REPORTED AS FAIR MEANS FEW OR NO CLOUDS BELOW
12 THOUSAND FEET.



USA.gov is the U.S. government's official web portal to all federal, state and local government web resources and services.